User: anonymous   Login
Location: Natural Bridges National Monument
(37.6093°N, 109.9767°W)
Time: 06:13:44
(UTC-06:00)
Language:

USA 32 - Orbit

View from above orbital plane
View from above orbital plane
View from above satellite
View from above satellite

Ground track
Ground track

The orbit data is extracted from the following two-line orbital elements,

1 19460U 88078A   14285.14601131 0.00000160  00000-0  58309-4 0    07
2 19460  84.9876  70.2720 0002668  24.1877 335.8122 14.33210027    00
Epoch (UTC): 12 October 2014 03:30:15
Eccentricity: 0.0002668
inclination: 84.9876°
perigee height: 779 km
apogee height: 783 km
right ascension of ascending node: 70.2720°
argument of perigee: 24.1877°
revolutions per day: 14.33210027
mean anomaly at epoch: 335.8122°
orbit number at epoch: 0

The dashed part of the orbit path shows where the satellite is in the earth's shadow,  

DLR